Time,TemperatureF,DewpointF,PressureIn,WindDirection,WindDirectionDegrees,WindSpeedMPH,WindSpeedGustMPH,Humidity,HourlyPrecipIn,Conditions,Clouds,dailyrainin,SoftwareType,DateUTC
2013-08-20 00:00:00,69.2,68.3,30.14,SSW,195,0.0,0.0,97,0.00,,,0.03,Wunderground v.1.15,2013-08-20 04:00:00,
2013-08-20 00:10:00,69.0,68.1,30.14,SSW,195,0.0,0.0,97,0.00,,,0.03,Wunderground v.1.15,2013-08-20 04:10:00,
2013-08-20 00:20:00,68.6,67.7,30.14,SSW,195,0.0,0.0,97,0.00,,,0.00,Wunderground v.1.15,2013-08-20 04:20:00,
2013-08-20 00:30:00,68.4,67.5,30.14,SSW,195,0.0,0.0,97,0.00,,,0.00,Wunderground v.1.15,2013-08-20 04:30:00,
2013-08-20 00:40:00,68.3,67.4,30.14,SSW,195,0.0,0.0,97,0.00,,,0.00,Wunderground v.1.15,2013-08-20 04:40:00,
2013-08-20 00:50:00,68.2,67.3,30.14,SSW,195,0.0,0.0,97,0.00,,,0.00,Wunderground v.1.15,2013-08-20 04:50:00,
2013-08-20 01:00:00,68.0,67.4,30.14,SSW,195,0.0,0.0,98,0.00,,,0.00,Wunderground v.1.15,2013-08-20 05:00:00,
2013-08-20 01:10:00,67.9,67.3,30.14,SSW,195,0.0,0.0,98,0.00,,,0.00,Wunderground v.1.15,2013-08-20 05:10:00,
2013-08-20 01:20:00,67.8,67.2,30.14,SSW,195,0.0,0.0,98,0.00,,,0.00,Wunderground v.1.15,2013-08-20 05:20:00,
2013-08-20 01:30:00,67.7,67.1,30.14,SSW,195,0.0,0.0,98,0.00,,,0.00,Wunderground v.1.15,2013-08-20 05:30:00,
2013-08-20 01:40:00,67.7,67.1,30.14,SSW,195,0.0,1.0,98,0.00,,,0.00,Wunderground v.1.15,2013-08-20 05:40:00,
2013-08-20 01:50:00,67.7,67.1,30.14,SSW,195,0.0,1.0,98,0.00,,,0.00,Wunderground v.1.15,2013-08-20 05:50:00,
2013-08-20 02:00:00,67.8,67.2,30.14,SSW,195,0.0,0.0,98,0.00,,,0.00,Wunderground v.1.15,2013-08-20 06:00:00,
2013-08-20 02:10:00,67.7,67.1,30.14,SSW,195,0.0,0.0,98,0.00,,,0.00,Wunderground v.1.15,2013-08-20 06:10:00,
2013-08-20 02:20:00,67.9,67.6,30.13,SSW,195,0.0,0.0,99,0.00,,,0.00,Wunderground v.1.15,2013-08-20 06:20:00,
2013-08-20 02:30:00,67.9,67.6,30.13,SSW,195,0.0,0.0,99,0.00,,,0.00,Wunderground v.1.15,2013-08-20 06:30:00,
2013-08-20 03:10:00,67.0,66.4,30.12,SSW,195,0.0,0.0,98,0.00,,,0.00,Wunderground v.1.15,2013-08-20 07:10:00,
2013-08-20 03:20:00,66.8,66.2,30.12,SSW,195,0.0,0.0,98,0.00,,,0.00,Wunderground v.1.15,2013-08-20 07:20:00,
2013-08-20 03:30:00,66.6,66.0,30.12,SSW,195,0.0,0.0,98,0.00,,,0.00,Wunderground v.1.15,2013-08-20 07:30:00,
2013-08-20 03:40:00,66.4,65.8,30.12,SSW,195,0.0,0.0,98,0.00,,,0.00,Wunderground v.1.15,2013-08-20 07:40:00,
2013-08-20 03:50:00,66.2,65.6,30.12,SSW,195,0.0,0.0,98,0.00,,,0.00,Wunderground v.1.15,2013-08-20 07:50:00,
2013-08-20 04:00:00,66.2,65.9,30.12,SSW,195,0.0,0.0,99,0.00,,,0.00,Wunderground v.1.15,2013-08-20 08:00:00,
2013-08-20 04:10:00,66.2,65.9,30.12,SSW,195,0.0,0.0,99,0.00,,,0.00,Wunderground v.1.15,2013-08-20 08:10:00,
2013-08-20 04:20:00,66.2,65.9,30.12,SSW,195,0.0,0.0,99,0.00,,,0.00,Wunderground v.1.15,2013-08-20 08:20:00,
2013-08-20 04:30:00,66.1,65.8,30.12,SSW,195,0.0,0.0,99,0.00,,,0.00,Wunderground v.1.15,2013-08-20 08:30:00,
2013-08-20 04:40:00,66.0,65.7,30.12,SSW,195,0.0,0.0,99,0.00,,,0.00,Wunderground v.1.15,2013-08-20 08:40:00,
2013-08-20 04:50:00,66.0,65.7,30.12,SSW,195,0.0,0.0,99,0.00,,,0.00,Wunderground v.1.15,2013-08-20 08:50:00,
2013-08-20 05:00:00,66.2,65.9,30.13,SSW,195,0.0,0.0,99,0.00,,,0.00,Wunderground v.1.15,2013-08-20 09:00:00,
2013-08-20 05:10:00,66.3,66.0,30.13,SSW,195,0.0,0.0,99,0.00,,,0.00,Wunderground v.1.15,2013-08-20 09:10:00,
2013-08-20 05:20:00,66.3,66.0,30.13,SSW,195,0.0,0.0,99,0.00,,,0.00,Wunderground v.1.15,2013-08-20 09:20:00,
2013-08-20 05:30:00,66.2,65.9,30.13,SSW,195,0.0,0.0,99,0.00,,,0.00,Wunderground v.1.15,2013-08-20 09:30:00,
2013-08-20 05:40:00,66.1,65.8,30.13,SSW,195,0.0,0.0,99,0.00,,,0.00,Wunderground v.1.15,2013-08-20 09:40:00,
2013-08-20 05:50:00,65.9,65.6,30.13,SSW,195,0.0,0.0,99,0.00,,,0.00,Wunderground v.1.15,2013-08-20 09:50:00,
2013-08-20 06:00:00,65.8,65.5,30.13,SSW,195,0.0,0.0,99,0.00,,,0.00,Wunderground v.1.15,2013-08-20 10:00:00,
2013-08-20 06:10:00,65.8,65.5,30.13,SSW,195,0.0,0.0,99,0.00,,,0.00,Wunderground v.1.15,2013-08-20 10:10:00,
2013-08-20 06:20:00,65.7,65.4,30.13,SSW,195,0.0,0.0,99,0.00,,,0.00,Wunderground v.1.15,2013-08-20 10:20:00,
2013-08-20 06:30:00,65.7,65.4,30.14,SSW,195,0.0,0.0,99,0.00,,,0.00,Wunderground v.1.15,2013-08-20 10:30:00,
2013-08-20 06:40:00,65.7,65.4,30.14,SSW,195,0.0,0.0,99,0.00,,,0.00,Wunderground v.1.15,2013-08-20 10:40:00,
2013-08-20 06:50:00,65.7,65.4,30.15,SSW,195,0.0,0.0,99,0.00,,,0.00,Wunderground v.1.15,2013-08-20 10:50:00,
2013-08-20 07:00:00,65.7,65.4,30.15,SSW,195,0.0,0.0,99,0.00,,,0.00,Wunderground v.1.15,2013-08-20 11:00:00,
2013-08-20 07:10:00,65.7,65.4,30.15,SSW,195,0.0,0.0,99,0.00,,,0.00,Wunderground v.1.15,2013-08-20 11:10:00,
2013-08-20 07:20:00,65.8,65.5,30.16,SSW,195,0.0,0.0,99,0.00,,,0.00,Wunderground v.1.15,2013-08-20 11:20:00,
2013-08-20 07:30:00,65.8,65.5,30.16,SSW,195,0.0,0.0,99,0.00,,,0.00,Wunderground v.1.15,2013-08-20 11:30:00,
2013-08-20 07:40:00,65.8,65.5,30.17,SSW,195,0.0,0.0,99,0.00,,,0.00,Wunderground v.1.15,2013-08-20 11:40:00,
2013-08-20 07:50:00,65.9,65.6,30.17,SSW,195,0.0,0.0,99,0.00,,,0.00,Wunderground v.1.15,2013-08-20 11:50:00,
2013-08-20 08:00:00,66.2,65.9,30.17,SSW,195,0.0,0.0,99,0.00,,,0.00,Wunderground v.1.15,2013-08-20 12:00:00,
2013-08-20 08:10:00,66.4,66.1,30.18,SSW,195,0.0,0.0,99,0.00,,,0.00,Wunderground v.1.15,2013-08-20 12:10:00,
2013-08-20 08:20:00,66.6,66.3,30.18,SSW,195,0.0,0.0,99,0.00,,,0.00,Wunderground v.1.15,2013-08-20 12:20:00,
2013-08-20 08:30:00,66.9,66.6,30.18,SSW,195,0.0,0.0,99,0.00,,,0.00,Wunderground v.1.15,2013-08-20 12:30:00,
2013-08-20 08:40:00,67.3,67.0,30.18,SSW,195,0.0,0.0,99,0.00,,,0.00,Wunderground v.1.15,2013-08-20 12:40:00,
2013-08-20 08:50:00,67.2,66.9,30.19,SSW,195,0.0,0.0,99,0.00,,,0.00,Wunderground v.1.15,2013-08-20 12:50:00,
2013-08-20 09:00:00,67.4,67.1,30.19,SSW,195,0.0,0.0,99,0.00,,,0.00,Wunderground v.1.15,2013-08-20 13:00:00,
2013-08-20 09:10:00,68.0,68.0,30.19,SSW,195,0.0,0.0,100,0.00,,,0.00,Wunderground v.1.15,2013-08-20 13:10:00,
2013-08-20 09:20:00,68.4,68.1,30.19,SSW,195,0.0,0.0,99,0.00,,,0.00,Wunderground v.1.15,2013-08-20 13:20:00,
2013-08-20 09:30:00,68.9,68.9,30.19,South,182,0.0,1.0,100,0.00,,,0.00,Wunderground v.1.15,2013-08-20 13:30:00,
2013-08-20 09:40:00,69.4,69.1,30.19,SSE,149,1.0,1.0,99,0.00,,,0.00,Wunderground v.1.15,2013-08-20 13:40:00,
2013-08-20 09:50:00,70.0,69.4,30.19,SSE,149,1.0,1.0,98,0.00,,,0.00,Wunderground v.1.15,2013-08-20 13:50:00,
2013-08-20 10:00:00,71.5,70.3,30.19,SSE,149,1.0,1.0,96,0.00,,,0.00,Wunderground v.1.15,2013-08-20 14:00:00,
2013-08-20 10:10:00,73.3,70.8,30.20,SE,146,0.0,0.0,92,0.00,,,0.00,Wunderground v.1.15,2013-08-20 14:10:00,
2013-08-20 10:20:00,74.0,70.9,30.20,SSE,167,1.0,2.0,90,0.00,,,0.00,Wunderground v.1.15,2013-08-20 14:20:00,
2013-08-20 10:30:00,75.2,71.1,30.19,WNW,286,1.0,1.0,87,0.00,,,0.00,Wunderground v.1.15,2013-08-20 14:30:00,
2013-08-20 10:40:00,75.5,70.7,30.20,NNW,343,2.0,3.0,85,0.00,,,0.00,Wunderground v.1.15,2013-08-20 14:40:00,
2013-08-20 10:50:00,76.0,71.2,30.20,South,173,1.0,3.0,85,0.00,,,0.00,Wunderground v.1.15,2013-08-20 14:50:00,
2013-08-20 11:00:00,77.8,71.5,30.20,South,171,2.0,2.0,81,0.00,,,0.00,Wunderground v.1.15,2013-08-20 15:00:00,
2013-08-20 11:10:00,79.0,71.6,30.20,South,183,2.0,2.0,78,0.00,,,0.00,Wunderground v.1.15,2013-08-20 15:10:00,
2013-08-20 11:20:00,79.5,72.4,30.20,South,188,1.0,1.0,79,0.00,,,0.00,Wunderground v.1.15,2013-08-20 15:20:00,
2013-08-20 11:30:00,79.4,71.9,30.20,West,266,1.0,2.0,78,0.00,,,0.00,Wunderground v.1.15,2013-08-20 15:30:00,
2013-08-20 11:40:00,79.8,72.3,30.20,West,281,1.0,1.0,78,0.00,,,0.00,Wunderground v.1.15,2013-08-20 15:40:00,
2013-08-20 11:50:00,80.4,72.1,30.20,North,355,1.0,1.0,76,0.00,,,0.00,Wunderground v.1.15,2013-08-20 15:50:00,
2013-08-20 12:00:00,79.8,71.6,30.20,West,273,1.0,1.0,76,0.00,,,0.00,Wunderground v.1.15,2013-08-20 16:00:00,
2013-08-20 12:10:00,79.9,72.4,30.20,WSW,252,1.0,1.0,78,0.00,,,0.00,Wunderground v.1.15,2013-08-20 16:10:00,
2013-08-20 12:20:00,80.2,71.6,30.20,NNE,31,1.0,1.0,75,0.00,,,0.00,Wunderground v.1.15,2013-08-20 16:20:00,
2013-08-20 12:30:00,81.7,73.0,30.20,South,175,1.0,1.0,75,0.00,,,0.00,Wunderground v.1.15,2013-08-20 16:30:00,
2013-08-20 12:40:00,82.9,72.9,30.19,ESE,106,1.0,4.0,72,0.00,,,0.00,Wunderground v.1.15,2013-08-20 16:40:00,
2013-08-20 12:50:00,81.9,72.4,30.19,SE,135,2.0,2.0,73,0.00,,,0.00,Wunderground v.1.15,2013-08-20 16:50:00,
2013-08-20 13:00:00,81.3,71.8,30.19,East,83,1.0,1.0,73,0.00,,,0.00,Wunderground v.1.15,2013-08-20 17:00:00,
2013-08-20 13:10:00,81.5,72.8,30.19,SE,131,1.0,4.0,75,0.00,,,0.00,Wunderground v.1.15,2013-08-20 17:10:00,
2013-08-20 13:20:00,82.0,72.9,30.19,SE,126,2.0,4.0,74,0.00,,,0.00,Wunderground v.1.15,2013-08-20 17:20:00,
2013-08-20 13:30:00,82.5,71.7,30.19,South,174,2.0,3.0,70,0.00,,,0.00,Wunderground v.1.15,2013-08-20 17:30:00,
2013-08-20 13:40:00,81.9,71.6,30.19,SSE,158,2.0,6.0,71,0.00,,,0.00,Wunderground v.1.15,2013-08-20 17:40:00,
2013-08-20 13:50:00,81.0,71.9,30.18,South,178,1.0,1.0,74,0.00,,,0.00,Wunderground v.1.15,2013-08-20 17:50:00,
2013-08-20 14:00:00,81.7,71.4,30.18,ESE,107,2.0,3.0,71,0.00,,,0.00,Wunderground v.1.15,2013-08-20 18:00:00,
2013-08-20 14:10:00,82.8,71.6,30.18,SE,128,3.0,3.0,69,0.00,,,0.00,Wunderground v.1.15,2013-08-20 18:10:00,
2013-08-20 14:20:00,83.0,72.6,30.17,South,182,4.0,4.0,71,0.00,,,0.00,Wunderground v.1.15,2013-08-20 18:20:00,
2013-08-20 14:30:00,82.8,72.0,30.17,ESE,120,3.0,3.0,70,0.00,,,0.00,Wunderground v.1.15,2013-08-20 18:30:00,
2013-08-20 14:40:00,82.7,71.5,30.17,SE,144,3.0,8.0,69,0.00,,,0.00,Wunderground v.1.15,2013-08-20 18:40:00,
2013-08-20 14:50:00,83.0,71.8,30.17,South,176,3.0,8.0,69,0.00,,,0.00,Wunderground v.1.15,2013-08-20 18:50:00,
2013-08-20 15:00:00,83.0,71.8,30.17,SSW,198,2.0,2.0,69,0.00,,,0.00,Wunderground v.1.15,2013-08-20 19:00:00,
2013-08-20 15:10:00,83.2,71.5,30.17,SSE,152,2.0,5.0,68,0.00,,,0.00,Wunderground v.1.15,2013-08-20 19:10:00,
2013-08-20 15:20:00,83.4,72.2,30.16,SSE,157,1.0,3.0,69,0.00,,,0.00,Wunderground v.1.15,2013-08-20 19:20:00,
2013-08-20 15:30:00,83.5,70.9,30.16,South,173,2.0,2.0,66,0.00,,,0.00,Wunderground v.1.15,2013-08-20 19:30:00,
2013-08-20 15:40:00,83.9,70.9,30.15,ENE,65,2.0,8.0,65,0.00,,,0.00,Wunderground v.1.15,2013-08-20 19:40:00,
2013-08-20 15:50:00,84.4,70.9,30.15,SE,132,2.0,2.0,64,0.00,,,0.00,Wunderground v.1.15,2013-08-20 19:50:00,
2013-08-20 16:00:00,84.7,71.6,30.15,SE,134,2.0,2.0,65,0.00,,,0.00,Wunderground v.1.15,2013-08-20 20:00:00,
2013-08-20 16:10:00,84.2,70.7,30.14,ESE,122,3.0,3.0,64,0.00,,,0.00,Wunderground v.1.15,2013-08-20 20:10:00,
2013-08-20 16:20:00,84.1,72.0,30.14,SSW,194,2.0,2.0,67,0.00,,,0.00,Wunderground v.1.15,2013-08-20 20:20:00,
2013-08-20 16:30:00,83.3,72.1,30.14,SSW,196,2.0,4.0,69,0.00,,,0.00,Wunderground v.1.15,2013-08-20 20:30:00,
2013-08-20 16:40:00,82.7,72.7,30.14,SE,138,2.0,2.0,72,0.00,,,0.00,Wunderground v.1.15,2013-08-20 20:40:00,
2013-08-20 16:50:00,83.1,71.9,30.14,SSW,211,2.0,2.0,69,0.00,,,0.00,Wunderground v.1.15,2013-08-20 20:50:00,
2013-08-20 17:00:00,83.4,72.6,30.14,SSW,205,2.0,2.0,70,0.00,,,0.00,Wunderground v.1.15,2013-08-20 21:00:00,
2013-08-20 17:10:00,83.0,73.4,30.13,SSE,150,2.0,4.0,73,0.00,,,0.00,Wunderground v.1.15,2013-08-20 21:10:00,
2013-08-20 17:20:00,82.5,72.6,30.13,SSE,166,3.0,3.0,72,0.00,,,0.00,Wunderground v.1.15,2013-08-20 21:20:00,
2013-08-20 17:30:00,82.1,73.0,30.13,SW,232,2.0,2.0,74,0.00,,,0.00,Wunderground v.1.15,2013-08-20 21:30:00,
2013-08-20 17:40:00,81.8,73.1,30.13,South,187,2.0,7.0,75,0.00,,,0.00,Wunderground v.1.15,2013-08-20 21:40:00,
2013-08-20 17:50:00,81.8,73.5,30.13,SSE,160,1.0,7.0,76,0.00,,,0.00,Wunderground v.1.15,2013-08-20 21:50:00,
2013-08-20 18:00:00,81.9,72.8,30.13,SE,145,2.0,2.0,74,0.00,,,0.00,Wunderground v.1.15,2013-08-20 22:00:00,
2013-08-20 18:10:00,81.7,72.2,30.13,ESE,118,2.0,4.0,73,0.00,,,0.00,Wunderground v.1.15,2013-08-20 22:10:00,
2013-08-20 18:20:00,81.4,72.3,30.13,SE,126,2.0,2.0,74,0.00,,,0.00,Wunderground v.1.15,2013-08-20 22:20:00,
2013-08-20 18:30:00,80.9,71.4,30.13,SSE,165,2.0,3.0,73,0.00,,,0.00,Wunderground v.1.15,2013-08-20 22:30:00,
2013-08-20 18:40:00,80.6,71.5,30.13,SE,138,2.0,8.0,74,0.00,,,0.00,Wunderground v.1.15,2013-08-20 22:40:00,
2013-08-20 18:50:00,80.4,71.7,30.13,SSE,161,1.0,8.0,75,0.00,,,0.00,Wunderground v.1.15,2013-08-20 22:50:00,
2013-08-20 19:00:00,80.0,71.8,30.13,South,184,1.0,1.0,76,0.00,,,0.00,Wunderground v.1.15,2013-08-20 23:00:00,
2013-08-20 19:10:00,79.9,72.0,30.14,ESE,122,1.0,4.0,77,0.00,,,0.00,Wunderground v.1.15,2013-08-20 23:10:00,
2013-08-20 19:20:00,79.6,71.8,30.14,SW,234,1.0,1.0,77,0.00,,,0.00,Wunderground v.1.15,2013-08-20 23:20:00,
2013-08-20 19:30:00,79.2,71.7,30.14,South,181,1.0,1.0,78,0.00,,,0.00,Wunderground v.1.15,2013-08-20 23:30:00,
2013-08-20 19:40:00,78.9,71.8,30.15,SSE,164,0.0,6.0,79,0.00,,,0.00,Wunderground v.1.15,2013-08-20 23:40:00,
2013-08-20 19:50:00,78.4,71.7,30.15,SSE,164,0.0,6.0,80,0.00,,,0.00,Wunderground v.1.15,2013-08-20 23:50:00,
2013-08-20 20:00:00,77.5,71.9,30.15,SSE,164,0.0,0.0,83,0.00,,,0.00,Wunderground v.1.15,2013-08-21 00:00:00,
2013-08-20 20:10:00,76.9,71.7,30.15,SSE,164,0.0,0.0,84,0.00,,,0.00,Wunderground v.1.15,2013-08-21 00:10:00,
2013-08-20 20:20:00,76.4,71.9,30.15,SSE,164,0.0,0.0,86,0.00,,,0.00,Wunderground v.1.15,2013-08-21 00:20:00,
2013-08-20 20:30:00,75.8,72.3,30.16,SSE,164,0.0,0.0,89,0.00,,,0.00,Wunderground v.1.15,2013-08-21 00:30:00,
2013-08-20 20:40:00,75.5,72.0,30.16,SSE,164,0.0,3.0,89,0.00,,,0.00,Wunderground v.1.15,2013-08-21 00:40:00,
2013-08-20 20:50:00,75.0,71.5,30.16,SSE,164,0.0,3.0,89,0.00,,,0.00,Wunderground v.1.15,2013-08-21 00:50:00,
2013-08-20 21:00:00,74.3,71.5,30.16,SSE,164,0.0,0.0,91,0.00,,,0.00,Wunderground v.1.15,2013-08-21 01:00:00,
2013-08-20 21:10:00,73.7,71.2,30.17,SSE,164,0.0,0.0,92,0.00,,,0.00,Wunderground v.1.15,2013-08-21 01:10:00,
2013-08-20 21:20:00,73.3,71.2,30.17,SSE,164,0.0,0.0,93,0.00,,,0.00,Wunderground v.1.15,2013-08-21 01:20:00,
2013-08-20 21:30:00,72.9,70.8,30.17,SSE,164,0.0,0.0,93,0.00,,,0.00,Wunderground v.1.15,2013-08-21 01:30:00,
2013-08-20 21:40:00,72.7,70.9,30.17,SSE,164,0.0,0.0,94,0.00,,,0.00,Wunderground v.1.15,2013-08-21 01:40:00,
2013-08-20 21:50:00,72.5,70.7,30.17,SSE,164,0.0,0.0,94,0.00,,,0.00,Wunderground v.1.15,2013-08-21 01:50:00,
2013-08-20 22:00:00,72.1,70.6,30.17,SSE,164,0.0,0.0,95,0.00,,,0.00,Wunderground v.1.15,2013-08-21 02:00:00,
2013-08-20 22:10:00,71.9,70.4,30.17,SSE,164,0.0,0.0,95,0.00,,,0.00,Wunderground v.1.15,2013-08-21 02:10:00,
2013-08-20 22:20:00,71.7,70.5,30.18,SSE,164,0.0,0.0,96,0.00,,,0.00,Wunderground v.1.15,2013-08-21 02:20:00,
2013-08-20 22:30:00,71.6,70.4,30.18,SSE,164,0.0,0.0,96,0.00,,,0.00,Wunderground v.1.15,2013-08-21 02:30:00,
2013-08-20 22:40:00,71.5,70.3,30.18,SSE,164,0.0,0.0,96,0.00,,,0.00,Wunderground v.1.15,2013-08-21 02:40:00,
2013-08-20 22:50:00,71.3,70.1,30.18,SSE,164,0.0,0.0,96,0.00,,,0.00,Wunderground v.1.15,2013-08-21 02:50:00,
2013-08-20 23:00:00,71.1,70.2,30.18,SSE,164,0.0,0.0,97,0.00,,,0.00,Wunderground v.1.15,2013-08-21 03:00:00,
2013-08-20 23:10:00,71.0,70.1,30.18,SSE,164,0.0,0.0,97,0.00,,,0.00,Wunderground v.1.15,2013-08-21 03:10:00,
2013-08-20 23:20:00,71.0,70.1,30.18,SSE,164,0.0,0.0,97,0.00,,,0.00,Wunderground v.1.15,2013-08-21 03:20:00,
2013-08-20 23:30:00,70.8,69.9,30.18,SSE,164,0.0,0.0,97,0.00,,,0.00,Wunderground v.1.15,2013-08-21 03:30:00,
2013-08-20 23:40:00,70.6,69.7,30.18,SSE,164,0.0,0.0,97,0.00,,,0.00,Wunderground v.1.15,2013-08-21 03:40:00,
2013-08-20 23:50:00,70.4,69.5,30.18,SSE,164,0.0,0.0,97,0.00,,,0.00,Wunderground v.1.15,2013-08-21 03:50:00,